アトラス彗星

C/2021 Y1 ( ATLAS )

English version
Home page
Updated on July 9, 2023

---------------------------------------------------------------------

・ プロフィール

発見日 2021年12月26日
発見光度 18.9等
発見者 Asteroid Terrestrial-Impact Last Alert System (ATLAS) search program

・ 写真集

・ 軌道要素

Epoch 2023 Feb. 25.0 TT = JDT 2460000.5
T 2023 Apr. 30.70282 TT                                 Rudenko
q   2.0324060            (2000.0)            P               Q
z  -0.0004266      Peri.  245.81553     -0.00833496     -0.47100471
 +/-0.0000009      Node   244.77015     +0.77294459     -0.56268882
e   1.0008670      Incl.   77.19034     -0.63441878     -0.67936430
>From 1880 observations 2021 Nov. 8-2023 June 16, mean residual 0".5.

・ 星図

・ 光度変化

        m1 = 10.5 + 5 logΔ + 5.0 log r

---------------------------------------------------------------------

軌道要素はM.P.E.C. 2023-N01に掲載されたものです。
星図はステラナビゲータ Ver.10 (アストロアーツ) で作成したものです。
光度グラフはComet for Windowsで作成したものです。

---------------------------------------------------------------------

Copyright(C) Seiichi Yoshida (comet@aerith.net). All rights reserved.